H1 CPF 2 NER 2021 2 26 9 057 01 glonass129 H2 1106402 9129 37868 2021 2 26 0 0 0 2021 3 1 23 45 0 900 1 1 0 0 0 1 H9 10 0 59271 0.00000 0 1534767.298 -11720594.346 -22571813.052 10 0 59271 900.00000 0 4109385.166 -12663805.256 -21729824.651 10 0 59271 1800.00000 0 6488822.303 -13740149.121 -20464647.683 10 0 59271 2700.00000 0 8622456.205 -14904430.346 -18801136.462 10 0 59271 3600.00000 0 10469870.569 -16104168.137 -16771880.272 10 0 59271 4500.00000 0 12002273.064 -17281829.645 -14416550.188 10 0 59271 5400.00000 0 13203424.520 -18377290.698 -11781109.938 10 0 59271 6300.00000 0 14070043.297 -19330419.762 -8916907.278 10 0 59271 7200.00000 0 14611670.926 -20083675.868 -5879664.634 10 0 59271 8100.00000 0 14850007.793 -20584611.168 -2728389.430 10 0 59271 9000.00000 0 14817749.713 -20788173.213 475774.182 10 0 59271 9900.00000 0 14556976.775 -20658710.879 3670729.516 10 0 59271 10800.00000 0 14117164.302 -20171600.687 6794624.571 10 0 59271 11700.00000 0 13552900.926 -19314426.321 9787039.489 10 0 59271 12600.00000 0 12921410.451 -18087663.019 12590141.914 10 0 59271 13500.00000 0 12279981.686 -16504839.014 15149789.051 10 0 59271 14400.00000 0 11683413.681 -14592167.782 17416556.535 10 0 59271 15300.00000 0 11181582.607 -12387666.450 19346675.761 10 0 59271 16200.00000 0 10817231.099 -9939796.522 20902863.318 10 0 59271 17100.00000 0 10624071.427 -7305682.215 22055028.201 10 0 59271 18000.00000 0 10625280.885 -4548978.730 22780844.507 10 0 59271 18900.00000 0 10832451.678 -1737476.661 23066179.710 10 0 59271 19800.00000 0 11245039.178 1059460.710 22905370.837 10 0 59271 20700.00000 0 11850332.146 3773523.495 22301343.231 10 0 59271 21600.00000 0 12623947.382 6340038.393 21265569.007 10 0 59271 22500.00000 0 13530829.863 8700403.969 19817864.865 10 0 59271 23400.00000 0 14526718.619 10804278.489 17986031.469 10 0 59271 24300.00000 0 15560019.195 12611430.382 15805339.348 10 0 59271 25200.00000 0 16574006.339 14093174.588 13317869.048 10 0 59271 26100.00000 0 17509266.126 15233334.509 10571716.185 10 0 59271 27000.00000 0 18306275.977 16028688.533 7620074.855 10 0 59271 27900.00000 0 18908014.312 16488881.350 4520215.674 10 0 59271 28800.00000 0 19262489.299 16635802.521 1332377.420 10 0 59271 29700.00000 0 19325078.708 16502457.459 -1881406.480 10 0 59271 30600.00000 0 19060580.012 16131377.753 -5058523.436 10 0 59271 31500.00000 0 18444881.627 15572637.760 -8137014.415 10 0 59271 32400.00000 0 17466181.921 14881561.800 -11056798.453 10 0 59271 33300.00000 0 16125701.719 14116219.937 -13760863.299 10 0 59271 34200.00000 0 14437857.815 13334819.861 -16196396.958 10 0 59271 35100.00000 0 12429888.132 12593107.127 -18315836.207 10 0 59271 36000.00000 0 10140942.908 11941885.729 -20077809.971 10 0 59271 36900.00000 0 7620679.412 11424765.784 -21447957.767 10 0 59271 37800.00000 0 4927419.050 11076235.119 -22399606.414 10 0 59271 38700.00000 0 2125944.385 10920137.353 -22914291.394 10 0 59271 39600.00000 0 -714970.940 10968621.248 -22982112.732 10 0 59271 40500.00000 0 -3525195.381 11221605.607 -22601918.943 10 0 59271 41400.00000 0 -6235925.212 11666781.602 -21781316.284 10 0 59271 42300.00000 0 -8782310.201 12280151.288 -20536504.170 10 0 59271 43200.00000 0 -11105909.894 13027078.098 -18891941.233 10 0 59271 44100.00000 0 -13156878.723 13863803.346 -16879849.793 10 0 59271 45000.00000 0 -14895789.957 14739363.107 -14539569.757 10 0 59271 45900.00000 0 -16295024.272 15597823.101 -11916775.773 10 0 59271 46800.00000 0 -17339667.301 16380736.106 -9062574.026 10 0 59271 47700.00000 0 -18027881.321 17029717.389 -6032497.313 10 0 59271 48600.00000 0 -18370738.505 17489029.161 -2885418.758 10 0 59271 49500.00000 0 -18391525.656 17708065.141 317594.190 10 0 59271 50400.00000 0 -18124552.279 17643630.983 3514462.802 10 0 59271 51300.00000 0 -17613514.334 17261925.348 6643294.269 10 0 59271 52200.00000 0 -16909484.134 16540139.240 9643570.237 10 0 59271 53100.00000 0 -16068611.841 15467607.434 12457304.301 10 0 59271 54000.00000 0 -15149635.448 14046464.594 15030147.181 10 0 59271 54900.00000 0 -14211303.446 12291779.104 17312419.630 10 0 59271 55800.00000 0 -13309817.393 10231159.209 19260054.624 10 0 59271 56700.00000 0 -12496400.316 7903847.380 20835432.417 10 0 59271 57600.00000 0 -11815091.293 5359339.552 22008093.975 10 0 59271 58500.00000 0 -11300857.092 2655585.011 22755320.476 10 0 59271 59400.00000 0 -10978098.685 -143160.520 23062568.797 10 0 59271 60300.00000 0 -10859614.335 -2968742.152 22923755.253 10 0 59271 61200.00000 0 -10946062.508 -5751676.284 22341382.107 10 0 59271 62100.00000 0 -11225947.547 -8423780.414 21326503.920 10 0 59271 63000.00000 0 -11676129.860 -10920755.698 19898533.194 10 0 59271 63900.00000 0 -12262840.856 -13184616.887 18084887.453 10 0 59271 64800.00000 0 -12943162.045 -15165870.060 15920482.578 10 0 59271 65700.00000 0 -13666908.207 -16825348.089 13447079.954 10 0 59271 66600.00000 0 -14378837.293 -18135627.167 10712497.962 10 0 59271 67500.00000 0 -15021095.385 -19081964.544 7769701.118 10 0 59271 68400.00000 0 -15535794.374 -19662717.072 4675782.980 10 0 59271 69300.00000 0 -15867613.468 -19889221.623 1490861.677 10 0 59271 70200.00000 0 -15966313.718 -19785141.085 -1723090.835 10 0 59271 71100.00000 0 -15789057.562 -19385302.452 -4903462.687 10 0 59271 72000.00000 0 -15302432.985 -18734075.382 -7988234.504 10 0 59271 72900.00000 0 -14484093.985 -17883359.644 -10917204.897 10 0 59271 73800.00000 0 -13323945.095 -16890267.121 -13633183.357 10 0 59271 74700.00000 0 -11824817.254 -15814597.452 -16083125.286 10 0 59271 75600.00000 0 -10002604.056 -14716215.638 -18219185.166 10 0 59271 76500.00000 0 -7885850.773 -13652444.236 -19999665.634 10 0 59271 77400.00000 0 -5514812.249 -12675582.137 -21389842.562 10 0 59271 78300.00000 0 -2940018.605 -11830656.306 -22362649.157 10 0 59271 79200.00000 0 -220408.846 -11153502.529 -22899205.336 10 0 59271 80100.00000 0 2578888.999 -10669256.750 -22989182.021 10 0 59271 81000.00000 0 5389037.740 -10391320.578 -22630993.762 10 0 59271 81900.00000 0 8140126.632 -10320843.889 -21831816.669 10 0 59271 82800.00000 0 10763852.060 -10446745.104 -20607432.393 10 0 59271 83700.00000 0 13196131.249 -10746266.601 -18981902.399 10 0 59271 84600.00000 0 15379540.242 -11186039.854 -16987080.155 10 0 59271 85500.00000 0 17265475.100 -11723613.355 -14661972.113 10 0 59272 0.00000 0 18815947.558 -12309376.858 -12051961.240 10 0 59272 900.00000 0 20004941.872 -12888798.957 -9207909.010 10 0 59272 1800.00000 0 20819278.990 -13404882.499 -6185155.313 10 0 59272 2700.00000 0 21258953.457 -13800732.696 -3042435.380 10 0 59272 3600.00000 0 21336933.107 -14022129.890 159263.771 10 0 59272 4500.00000 0 21078431.529 -14019997.953 3357885.124 10 0 59272 5400.00000 0 20519686.752 -13752665.010 6491498.707 10 0 59272 6300.00000 0 19706299.190 -13187821.940 9499491.085 10 0 59272 7200.00000 0 18691199.889 -12304097.205 12323724.877 10 0 59272 8100.00000 0 17532335.014 -11092182.729 14909646.976 10 0 59272 9000.00000 0 16290163.523 -9555464.207 17207325.454 10 0 59272 9900.00000 0 15025072.256 -7710129.771 19172396.592 10 0 59272 10800.00000 0 13794815.412 -5584752.192 20766905.549 10 0 59272 11700.00000 0 12652083.973 -3219361.112 21960026.065 10 0 59272 12600.00000 0 11642305.064 -664042.503 22728646.761 10 0 59272 13500.00000 0 10801761.590 2022878.526 23057813.894 10 0 59272 14400.00000 0 10156109.444 4776998.677 22941022.655 10 0 59272 15300.00000 0 9719353.479 7530254.223 22380351.496 10 0 59272 16200.00000 0 9493324.850 10213498.133 21386436.364 10 0 59272 17100.00000 0 9467682.043 12759132.353 19978284.234 10 0 59272 18000.00000 0 9620436.593 15103688.072 18182927.915 10 0 59272 18900.00000 0 9918982.941 17190248.442 16034926.832 10 0 59272 19800.00000 0 10321590.900 18970613.804 13575721.192 10 0 59272 20700.00000 0 10779299.720 20407119.289 10852849.926 10 0 59272 21600.00000 0 11238135.419 21474028.319 7919045.564 10 0 59272 22500.00000 0 11641558.816 22158442.626 4831222.036 10 0 59272 23400.00000 0 11933041.134 22460689.088 1649374.106 10 0 59272 24300.00000 0 12058657.778 22394165.618 -1564590.548 10 0 59272 25200.00000 0 11969589.216 21984651.138 -4748063.593 10 0 59272 26100.00000 0 11624421.107 21269107.638 -7838968.073 10 0 59272 27000.00000 0 10991143.799 20294024.329 -10776984.781 10 0 59272 27900.00000 0 10048763.713 19113373.854 -13504747.356 10 0 59272 28800.00000 0 8788455.679 17786267.533 -15968980.757 10 0 59272 29700.00000 0 7214204.857 16374409.870 -18121559.065 10 0 59272 30600.00000 0 5342908.904 14939461.303 -19920460.274 10 0 59272 31500.00000 0 3203934.477 13540422.203 -21330597.991 10 0 59272 32400.00000 0 838145.638 12231149.989 -22324512.956 10 0 59272 33300.00000 0 -1703555.513 11058115.265 -22882910.409 10 0 59272 34200.00000 0 -4362114.612 10058492.257 -22995032.789 10 0 59272 35100.00000 0 -7072557.860 9258664.045 -22658860.963 10 0 59272 36000.00000 0 -9766477.884 8673204.926 -21881140.818 10 0 59272 36900.00000 0 -12374668.048 8304381.549 -20677235.749 10 0 59272 37800.00000 0 -14829794.748 8142192.029 -19070809.142 10 0 59272 38700.00000 0 -17068996.099 8164939.194 -17093344.310 10 0 59272 39600.00000 0 -19036298.712 8340311.477 -14783512.604 10 0 59272 40500.00000 0 -20684752.601 8626923.430 -12186403.271 10 0 59272 41400.00000 0 -21978196.401 8976248.667 -9352631.196 10 0 59272 42300.00000 0 -22892580.938 9334861.792 -6337341.011 10 0 59272 43200.00000 0 -23416798.059 9646893.199 -3199127.746 10 0 59272 44100.00000 0 -23552982.504 9856592.212 1104.386 10 0 59272 45000.00000 0 -23316276.682 9910889.990 3201322.496 10 0 59272 45900.00000 0 -22734070.590 9761854.177 6339561.912 10 0 59272 46800.00000 0 -21844750.775 9368932.317 9355116.620 10 0 59272 47700.00000 0 -20696012.287 8700890.343 12189700.787 10 0 59272 48600.00000 0 -19342805.251 7737365.445 14788559.997 10 0 59272 49500.00000 0 -17845002.265 6469968.851 17101512.086 10 0 59272 50400.00000 0 -16264883.765 4902892.752 19083898.977 10 0 59272 51300.00000 0 -14664545.442 3052995.957 20697432.876 10 0 59272 52200.00000 0 -13103334.474 949364.061 21910922.203 10 0 59272 53100.00000 0 -11635419.857 -1367638.718 22700864.650 10 0 59272 54000.00000 0 -10307596.328 -3847788.447 23051897.162 10 0 59272 54900.00000 0 -9157411.825 -6432834.552 22957094.809 10 0 59272 55800.00000 0 -8211695.327 -9058673.595 22418112.886 10 0 59272 56700.00000 0 -7485545.692 -11657776.430 21445169.056 10 0 59272 57600.00000 0 -6981823.580 -14161770.783 20056864.746 10 0 59272 58500.00000 0 -6691168.144 -16504074.387 18279847.678 10 0 59272 59400.00000 0 -6592538.737 -18622471.139 16148320.091 10 0 59272 60300.00000 0 -6654260.267 -20461524.279 13703399.924 10 0 59272 61200.00000 0 -6835529.761 -21974726.336 10992345.212 10 0 59272 62100.00000 0 -7088322.122 -23126295.737 8067654.733 10 0 59272 63000.00000 0 -7359615.775 -23892543.902 4986060.695 10 0 59272 63900.00000 0 -7593844.762 -24262753.916 1807432.127 10 0 59272 64800.00000 0 -7735473.371 -24239532.187 -1406390.203 10 0 59272 65700.00000 0 -7731583.431 -23838616.481 -4592804.397 10 0 59272 66600.00000 0 -7534363.017 -23088146.893 -7689679.028 10 0 59272 67500.00000 0 -7103388.911 -22027429.438 -10636580.396 10 0 59272 68400.00000 0 -6407603.455 -20705243.915 -13375969.732 10 0 59272 69300.00000 0 -5426899.318 -19177767.612 -15854345.050 10 0 59272 70200.00000 0 -4153242.396 -17506203.182 -18023303.454 10 0 59272 71100.00000 0 -2591282.905 -15754211.926 -19840501.510 10 0 59272 72000.00000 0 -758426.991 -13985262.143 -21270493.470 10 0 59272 72900.00000 0 1315635.637 -12260005.744 -22285430.079 10 0 59272 73800.00000 0 3589928.969 -10633794.797 -22865603.870 10 0 59272 74700.00000 0 6013671.152 -9154443.383 -22999830.215 10 0 59272 75600.00000 0 8528175.877 -7860329.125 -22685657.169 10 0 59272 76500.00000 0 11069094.529 -6778913.764 -21929400.730 10 0 59272 77400.00000 0 13568904.527 -5925743.913 -20746005.869 10 0 59272 78300.00000 0 15959539.224 -5303972.228 -19158737.229 10 0 59272 79200.00000 0 18175049.045 -4904416.903 -17198706.824 10 0 59272 80100.00000 0 20154182.513 -4706154.389 -14904249.266 10 0 59272 81000.00000 0 21842779.715 -4677617.679 -12320158.010 10 0 59272 81900.00000 0 23195879.053 -4778151.162 -9496798.617 10 0 59272 82800.00000 0 24179450.477 -4959954.128 -6489117.438 10 0 59272 83700.00000 0 24771684.515 -5170328.908 -3355565.849 10 0 59272 84600.00000 0 24963785.244 -5354137.281 -156961.532 10 0 59272 85500.00000 0 24760236.231 -5456360.616 3044690.612 10 0 59273 0.00000 0 24178530.580 -5424655.411 6187394.996 10 0 59273 900.00000 0 23248378.206 -5211796.285 9210356.851 10 0 59273 1800.00000 0 22010425.675 -4777905.136 12055145.269 10 0 59273 2700.00000 0 20514542.446 -4092371.552 14666807.589 10 0 59273 3600.00000 0 18817746.378 -3135386.539 16994914.077 10 0 59273 4500.00000 0 16981854.513 -1899024.509 18994514.521 10 0 59273 5400.00000 0 15070956.522 -387829.042 20626989.974 10 0 59273 6300.00000 0 13148814.693 1381122.541 21860784.902 10 0 59273 7200.00000 0 11276297.106 3378679.261 22672007.032 10 0 59273 8100.00000 0 9508948.899 5564583.620 23044884.571 10 0 59273 9000.00000 0 7894800.788 7888907.672 22972072.639 10 0 59273 9900.00000 0 6472504.472 10293900.781 22454803.176 10 0 59273 10800.00000 0 5269871.262 12716175.180 21502874.978 10 0 59273 11700.00000 0 4302874.162 15089141.343 20134482.985 10 0 59273 12600.00000 0 3575154.959 17345594.522 18375888.558 10 0 59273 13500.00000 0 3078057.364 19420347.025 16260935.156 10 0 59273 14400.00000 0 2791185.725 21252798.138 13830416.572 10 0 59273 15300.00000 0 2683467.095 22789335.166 11131307.811 10 0 59273 16200.00000 0 2714673.252 23985465.191 8215871.496 10 0 59273 17100.00000 0 2837339.649 24807587.524 5140655.515 10 0 59273 18000.00000 0 2999000.984 25234330.959 1965400.354 10 0 59273 18900.00000 0 3144649.025 25257397.869 -1248123.078 10 0 59273 19800.00000 0 3219308.050 24881877.562 -4437322.334 10 0 59273 20700.00000 0 3170617.598 24126013.783 -7540014.538 10 0 59273 21600.00000 0 2951311.093 23020434.608 -10495654.410 10 0 59273 22500.00000 0 2521482.944 21606876.108 -13246533.535 10 0 59273 23400.00000 0 1850545.371 19936453.221 -15738925.516 10 0 59273 24300.00000 0 918789.407 18067550.917 -17924152.771 10 0 59273 25200.00000 0 -281518.544 16063425.262 -19759552.466 10 0 59273 26100.00000 0 -1745553.028 13989616.601 -21209321.240 10 0 59273 27000.00000 0 -3455885.041 11911284.993 -22245221.314 10 0 59273 27900.00000 0 -5382979.689 9890581.182 -22847133.671 10 0 59273 28800.00000 0 -7486215.480 7984164.563 -23003447.440 10 0 59273 29700.00000 0 -9715382.438 6240972.785 -22711278.293 10 0 59273 30600.00000 0 -12012595.769 4700336.436 -21976512.340 10 0 59273 31500.00000 0 -14314544.109 3390517.093 -20813675.647 10 0 59273 32400.00000 0 -16554977.505 2327728.516 -19245633.168 10 0 59273 33300.00000 0 -18667330.313 1515679.887 -17303124.221 10 0 59273 34200.00000 0 -20587368.813 945657.726 -15024144.899 10 0 59273 35100.00000 0 -22255752.713 597140.079 -12453190.774 10 0 59273 36000.00000 0 -23620403.779 438914.190 -9640375.772 10 0 59273 36900.00000 0 -24638583.255 430647.763 -6640445.513 10 0 59273 37800.00000 0 -25278592.419 524845.095 -3511705.172 10 0 59273 38700.00000 0 -25521026.769 669103.578 -314883.311 10 0 59273 39600.00000 0 -25359533.132 808573.971 2888045.784 10 0 59273 40500.00000 0 -24801040.057 888519.830 6035058.389 10 0 59273 41400.00000 0 -23865453.677 856867.950 9065273.383 10 0 59273 42300.00000 0 -22584833.387 666642.637 11920117.523 10 0 59273 43200.00000 0 -21002082.973 278181.938 14544442.473 10 0 59273 44100.00000 0 -19169212.468 -338956.544 16887573.359 10 0 59273 45000.00000 0 -17145243.233 -1204479.471 18904270.066 10 0 59273 45900.00000 0 -14993842.951 -2326294.277 20555584.473 10 0 59273 46800.00000 0 -12780787.696 -3699942.753 21809598.765 10 0 59273 47700.00000 0 -10571355.022 -5308555.824 22642032.050 10 0 59273 48600.00000 0 -8427754.401 -7123332.488 23036704.792 10 0 59273 49500.00000 0 -6406699.691 -9104524.711 22985852.839 10 0 59273 50400.00000 0 -4557222.593 -11202889.492 22490285.151 10 0 59273 51300.00000 0 -2918816.346 -13361550.326 21559381.758 10 0 59273 52200.00000 0 -1519985.692 -15518193.442 20210930.950 10 0 59273 53100.00000 0 -377263.013 -17607510.093 18470807.306 10 0 59273 54000.00000 0 505268.371 -19563785.529 16372494.827 10 0 59273 54900.00000 0 1135923.271 -21323528.574 13956462.211 10 0 59273 55800.00000 0 1534837.279 -22828033.000 11269400.196 10 0 59273 56700.00000 0 1732886.119 -24025763.847 8363333.741 10 0 59273 57600.00000 0 1770146.134 -24874468.186 5294624.615 10 0 59273 58500.00000 0 1693959.957 -25342920.355 2122882.708 10 0 59273 59400.00000 0 1556688.720 -25412226.531 -1090193.231 10 0 59273 60300.00000 0 1413246.150 -25076631.522 -4282022.747 10 0 59273 61200.00000 0 1318519.863 -24343791.546 -7390374.276 10 0 59273 62100.00000 0 1324790.678 -23234499.495 -10354593.923 10 0 59273 63000.00000 0 1479261.478 -21781872.637 -13116806.756 10 0 59273 63900.00000 0 1821802.747 -20030036.022 -15623065.179 10 0 59273 64800.00000 0 2383012.954 -18032356.678 -17824420.133 10 0 59273 65700.00000 0 3182678.395 -15849303.234 -19677892.476 10 0 59273 66600.00000 0 4228699.848 -13546021.788 -21147324.104 10 0 59273 67500.00000 0 5516533.196 -11189731.026 -22204091.244 10 0 59273 68400.00000 0 7029168.858 -8847047.091 -22827665.447 10 0 59273 69300.00000 0 8737651.517 -6581351.560 -23006011.253 10 0 59273 70200.00000 0 10602118.408 -4450313.479 -22735813.129 10 0 59273 71100.00000 0 12573312.195 -2503669.391 -22022527.980 10 0 59273 72000.00000 0 14594504.155 -781353.863 -20880263.192 10 0 59273 72900.00000 0 16603746.168 687942.436 -19331483.792 10 0 59273 73800.00000 0 18536356.214 1887728.654 -17406555.685 10 0 59273 74700.00000 0 20327532.435 2814145.963 -15143135.260 10 0 59273 75600.00000 0 21914985.777 3475860.902 -12585418.530 10 0 59273 76500.00000 0 23241480.876 3893427.412 -9783265.616 10 0 59273 77400.00000 0 24257179.015 4098147.481 -6791218.780 10 0 59273 78300.00000 0 24921685.837 4130481.240 -3667433.965 10 0 59273 79200.00000 0 25205719.206 4038075.970 -472547.270 10 0 59273 80100.00000 0 25092328.832 3873499.006 2731501.170 10 0 59273 81000.00000 0 24577618.275 3691771.402 5882663.026 10 0 59273 81900.00000 0 23670940.744 3547806.990 8919974.488 10 0 59273 82800.00000 0 22394562.038 3493864.746 11784723.293 10 0 59273 83700.00000 0 20782805.845 3577121.318 14421568.561 10 0 59273 84600.00000 0 18880717.764 3837465.035 16779593.117 10 0 59273 85500.00000 0 16742303.857 4305603.164 18813269.455 10 0 59274 0.00000 0 14428416.600 5001560.975 20483322.435 10 0 59274 900.00000 0 12004374.855 5933635.402 21757473.860 10 0 59274 1800.00000 0 9537415.413 7097845.802 22611055.686 10 0 59274 2700.00000 0 7094079.784 8477907.369 23027481.756 10 0 59274 3600.00000 0 4737642.212 10045727.494 22998569.403 10 0 59274 4500.00000 0 2525683.905 11762407.489 22524704.942 10 0 59274 5400.00000 0 507911.942 13579709.744 21614849.557 10 0 59274 6300.00000 0 -1275688.010 15441931.938 20286384.377 10 0 59274 7200.00000 0 -2796289.312 17288112.848 18564796.266 10 0 59274 8100.00000 0 -4037192.834 19054480.231 16483208.449 10 0 59274 9000.00000 0 -4994285.746 20677040.686 14081762.845 10 0 59274 9900.00000 0 -5675970.723 22094204.535 11406863.933 10 0 59274 10800.00000 0 -6102567.627 23249336.473 8510296.747 10 0 59274 11700.00000 0 -6305211.750 24093124.771 5448234.431 10 0 59274 12600.00000 0 -6324294.063 24585668.415 2280153.575 10 0 59274 13500.00000 0 -6207508.719 24698192.717 -932322.118 10 0 59274 14400.00000 0 -6007590.259 24414318.879 -4126627.181 10 0 59274 15300.00000 0 -5779836.819 23730831.622 -7240484.420 10 0 59274 16200.00000 0 -5579525.436 22657910.100 -10213134.367 10 0 59274 17100.00000 0 -5459330.732 21218810.284 -12986538.510 10 0 59274 18000.00000 0 -5466858.566 19449010.650 -15506530.847 10 0 59274 18900.00000 0 -5642401.565 17394856.203 -17723893.424 10 0 59274 19800.00000 0 -6017014.033 15111757.576 -19595333.138 10 0 59274 20700.00000 0 -6610989.895 12662021.307 -21084339.214 10 0 59274 21600.00000 0 -7432809.887 10112403.129 -22161903.667 10 0 59274 22500.00000 0 -8478603.793 7531487.907 -22807090.086 10 0 59274 23400.00000 0 -9732151.138 4987007.134 -23007439.525 10 0 59274 24300.00000 0 -11165420.492 2543207.051 -22759205.940 10 0 59274 25200.00000 0 -12739624.394 258377.917 -22067417.278 10 0 59274 26100.00000 0 -14406744.725 -1817352.379 -20945761.995 10 0 59274 27000.00000 0 -16111463.480 -3643868.948 -19416304.435 10 0 59274 27900.00000 0 -17793416.784 -5192488.971 -17509035.864 10 0 59274 28800.00000 0 -19389676.428 -6446891.896 -15261271.301 10 0 59274 29700.00000 0 -20837354.005 -7403524.564 -12716905.172 10 0 59274 30600.00000 0 -22076217.866 -8071467.346 -9925541.494 10 0 59274 31500.00000 0 -23051212.962 -8471770.047 -6941516.661 10 0 59274 32400.00000 0 -23714778.213 -8636288.654 -3822834.744 10 0 59274 33300.00000 0 -24028864.952 -8606074.663 -630036.638 10 0 59274 34200.00000 0 -23966572.876 -8429387.153 2574974.474 10 0 59274 35100.00000 0 -23513336.294 -8159413.068 5730128.512 10 0 59274 36000.00000 0 -22667612.387 -7851792.850 8774381.836 10 0 59274 36900.00000 0 -21441044.045 -7562056.008 11648886.002 10 0 59274 37800.00000 0 -19858091.581 -7343074.411 14298110.327 10 0 59274 38700.00000 0 -17955149.327 -7242639.737 16670897.921 10 0 59274 39600.00000 0 -15779184.194 -7301265.930 18721436.258 10 0 59274 40500.00000 0 -13385952.409 -7550307.872 20410125.292 10 0 59274 41400.00000 0 -10837867.484 -8010474.255 21704328.051 10 0 59274 42300.00000 0 -8201606.461 -8690796.389 22578990.719 10 0 59274 43200.00000 0 -5545551.657 -9588096.079 23017121.502 10 0 59274 44100.00000 0 -2937171.677 -10686975.467 23010119.804 10 0 59274 45000.00000 0 -440447.974 -11960330.491 22557949.579 10 0 59274 45900.00000 0 1886548.595 -13370368.426 21669153.143 10 0 59274 46800.00000 0 3993832.528 -14870089.368 20360704.188 10 0 59274 47700.00000 0 5841340.748 -16405172.275 18657701.347 10 0 59274 48600.00000 0 7400356.309 -17916189.328 16592906.295 10 0 59274 49500.00000 0 8654459.626 -19341058.210 14206133.151 10 0 59274 50400.00000 0 9599967.013 -20617631.284 11543498.818 10 0 59274 51300.00000 0 10245837.389 -21686314.089 8656546.796 10 0 59274 52200.00000 0 10613050.104 -22492603.322 5601259.697 10 0 59274 53100.00000 0 10733478.904 -22989436.862 2436978.626 10 0 59274 54000.00000 0 10648308.799 -23139255.387 -774750.179 10 0 59274 54900.00000 0 10406062.235 -22915686.598 -3971378.860 10 0 59274 55800.00000 0 10060318.197 -22304778.489 -7090587.363 10 0 59274 56700.00000 0 9667221.593 -21305727.047 -10071513.533 10 0 59274 57600.00000 0 9282889.774 -19931065.179 -12855958.233 10 0 59274 58500.00000 0 8960827.923 -18206302.847 -15389540.024 10 0 59274 59400.00000 0 8749464.993 -16169032.046 -17622774.973 10 0 59274 60300.00000 0 8689916.819 -13867533.390 -19512058.794 10 0 59274 61200.00000 0 8814073.221 -11358942.731 -21020530.611 10 0 59274 62100.00000 0 9143091.839 -8707055.086 -22118800.484 10 0 59274 63000.00000 0 9686363.712 -5979858.669 -22785525.927 10 0 59274 63900.00000 0 10440995.045 -3246903.270 -23007825.977 10 0 59274 64800.00000 0 11391827.249 -576613.932 -22781525.112 10 0 59274 65700.00000 0 12511994.050 1966337.228 -22111222.911 10 0 59274 66600.00000 0 13763991.397 4323491.015 -21010189.068 10 0 59274 67500.00000 0 15101214.010 6444790.695 -19500086.994 10 0 59274 68400.00000 0 16469892.622 8290410.743 -17610532.660 10 0 59274 69300.00000 0 17811349.129 9832150.055 -15378498.640 10 0 59274 70200.00000 0 19064473.662 11054333.756 -12847576.292 10 0 59274 71100.00000 0 20168318.567 11954188.698 -10067111.619 10 0 59274 72000.00000 0 21064699.730 12541679.943 -7091232.848 10 0 59274 72900.00000 0 21700695.849 12838818.338 -3977789.515 10 0 59274 73800.00000 0 22030940.991 12878471.275 -787224.361 10 0 59274 74700.00000 0 22019614.884 12702729.286 2418599.531 10 0 59274 75600.00000 0 21642048.432 12360899.357 5577593.557 10 0 59274 76500.00000 0 20885878.317 11907210.881 8628637.481 10 0 59274 77400.00000 0 19751703.481 11398331.581 11512749.809 10 0 59274 78300.00000 0 18253217.063 10890798.022 14174213.036 10 0 59274 79200.00000 0 16416808.906 10438468.269 16561633.336 10 0 59274 80100.00000 0 14280655.454 10090102.773 18628915.707 10 0 59274 81000.00000 0 11893334.597 9887173.860 20336137.465 10 0 59274 81900.00000 0 9312022.023 9861994.482 21650304.944 10 0 59274 82800.00000 0 6600342.545 10036243.643 22545980.264 10 0 59274 83700.00000 0 3825963.469 10419949.603 23005767.378 10 0 59274 84600.00000 0 1058027.362 11010973.409 23020648.790 10 0 59274 85500.00000 0 -1635471.810 11795014.959 22590166.688 99